Kbely Air Base

Jump to: basic info | weather | frequencies | runways | comments

Related pages: nearby airports | nearby navaids | notams | map

Basic information (top)

Codes: LKKB
Location: lon 50.121399, lat 14.543600, elev 939 ft / 286 m msl
Status: medium_airport

Weather (top)

Current conditions (rec'd 2015/03/07 04:00Z):

LKKB 070400Z 24004KT CAVOK 03/M00 Q1034

Airport forecast (rec'd 2015/02/27 18:00Z):

TAF COR LKKB 271830Z 2718/2818 01004KT 9999 BKN025 
      BECMG 2803/2805 7000 BKN020 PROB30 
      TEMPO 2803/2809 3000 BR SCT015 BKN025 
      BECMG 2810/2812 9999 BKN025 PROB30 
      TEMPO 2809/2816 34008KT 6000 RA BKN015

Frequencies (top)

Verify before use: may be inaccurate or out of date.

APP: 124.675 MHz (APP)
GCA: 123.3 MHz (PRECISION)
TWR: 120.875 MHz (TWR)

Runways (top)

06/24: 6,562 x 148 ft (2,000 x 45 m) — paved — lighted

Latest comments (top)

No comments yet for Kbely Air Base

More... (top)

See also NOTAMs and nearby airports and navaids, or visit the Kbely Air Base page at the main OurAirports website..